Showing default

EXPLORER 36 (GEOS 2), 3093

Orbit data source: Space-Track

EXPLORER 36 (GEOS 2), 3093 is a payload satellite owned by GSFC (US) in LEO that was launched on Thu, 11 Jan 1968 UTC via a THOR DELTA E1 launch vehicle from the Air Force Western Test Range (AFWTR). Payload-class satellites include a variety of spacecraft equipped with specific instruments for various scientific and technological missions. These include communications satellites like Starlink; space stations such as the ISS; scientific satellites like the Hubble; Earth observation satellites from companies like Planet Labs, Umbra, and HawkEye 360; GPS; miniature CubeSats for education and research; and military/defense satellites.

Loading next visibility...
Identifier
3093, 1968-002A
Orbit
LEO
Country
Flag of USUS
Related business
Manufacturer
APL
Mission
Spacecraft
Bus & Motor
ANNA, Unknown motor
Mass
212 kg wet, 212 kg dry
Launch date (UTC)
1968-01-11 (58 years ago)
Launch vehicle
THOR DELTA E1
Launch site
Air Force Western Test Range (AFWTR)
Object type
Payload
Rocket body
Debris
Shape & HBR
Unknown
Radar Cross Section
Large (>1 m²)

Expand to show TLE details & history
Last TLE update: 16 hours ago

TLE from 16 hours ago
0 EXPLORER 36 (GEOS 2)
1  3093U 68002A   25300.41343264 -.00000037  00000-0  12627-3 0  9990
2  3093 105.8010  93.8519 0318167 123.6141 304.1755 12.83594772707491
Epoch: 2025-10-27T09:55Z
TLE epoch observation values (Epoch: 2025-10-27T09:55:20.580Z)
Latitude
60.55374°
Longitude
-120.91579°
Altitude
1,204.757 km
Speed
7.32 km/s
True Right ascension
04h 15m 44s
True Declination
60° 24' 54"
Sunlit
Object was in full shadow at epoch
Visualization orbit readout
Latitude
Unknown
Longitude
Unknown
Altitude
Unknown
Speed
Unknown
Apparent Right ascension
Unknown
Apparent Declination
Unknown
Sunlit
N/A
Visualization observer readout
Local Sidereal Time
20:54:40
Azimuth
Unknown
Elevation
Unknown
Doppler factor
Unknown
Orbital elements
Apogee altitude
1,569.913 km
Perigee altitude
1,079.747 km
Semi-major axis
7,702.967 km
Eccentricity
0.03182
Inclination
105.801°
RAAN
93.8519°
Arg. of periapsis
123.6141°
True anomaly
301.09178°
Mean anomaly
304.1755°
Eccentric anomaly
302.64043°
Mean motion
3.21038 °/min
Orbital period
112.14 mins
BSTAR
0.00012627
Loading maneuver chart data...
Computing Atmospheric mass density...
Loading historical data...
Loading historical data...
Loading historical data...
Loading historical data...
Loading historical data...
Loading historical data...
Loading historical data...

Documentation

Showing up to 5 results
|